Regional Weather Roundup
Issued by NWS

Home | Current Version | Previous Version | Graphics & Text | Print | Product List | Glossary On
Versions: 1 2 3 4 5 6 7 8 9 10 11 12 13 14 15 16 17 18 19 20 21 22 23 24 25 26 27 28 29 30 31 32 33 34 35 36 37 38 39 40 41 42 43 44 45 46 47 48 49 50
000
ASUS43 KLSX 121059
RWRMO

WEATHER SUMMARY FOR MISSOURI
NATIONAL WEATHER SERVICE SPRINGFIELD MO
600 AM CDT SAT JUL 12 2014

NOTE: "FAIR" INDICATES FEW OR NO CLOUDS BELOW 12,000 FEET WITH NO
       SIGNIFICANT WEATHER AND/OR OBSTRUCTIONS TO VISIBILITY.
       CURRENT SKY AND/OR WEATHER CONDITIONS ARE NOT AVAILABLE FOR
       CHILLICOTHE AND FARMINGTON.

MOZ001>031-035>038-043-044-053-054-121200-
...NORTHERN AND WESTERN MISSOURI...

CITY           SKY/WX    TMP DP  RH WIND       PRES   REMARKS
KANSAS CTY INT MOCLDY    75  67  76 S12       30.05S
KANSAS C DTWN  PTCLDY    80  66  62 SW10      30.05R
LEE`S SUMMIT   PTCLDY    75  67  76 SW9       30.07S
ST JOSEPH      CLOUDY    76  70  82 S8        30.02F
CHILLICOTHE      N/A     78  70  76 S6        30.05S
KIRKSVILLE     CLOUDY    77  70  79 SW6       30.06R

$$
MOZ066>068-077>081-088>096-101>105-121200-
...SOUTHWEST MISSOURI...

CITY           SKY/WX    TMP DP  RH WIND       PRES   REMARKS
SPRINGFIELD    CLEAR     72  68  87 S8        30.14R
JOPLIN         CLEAR     75  67  76 S7        30.13R

$$
MOZ032>034-039>042-045>050-055>058-069>072-121200-
...CENTRAL MISSOURI...

CITY           SKY/WX    TMP DP  RH WIND       PRES   REMARKS
COLUMBIA       CLOUDY    78  72  81 SW9       30.11R
ROLLA          CLOUDY    75  71  87 S9        30.12R
SEDALIA        MOCLDY    77  71  82 SW9       30.10R
OSAGE BEACH    MOCLDY    75  70  83 S3        30.11R

$$
MOZ051-052-059>065-121200-
...EAST CENTRAL MISSOURI...

CITY           SKY/WX    TMP DP  RH WIND       PRES   REMARKS
ST LOUIS INTL  CLOUDY    81  72  74 SW8       30.10R
SPIRIT OF STL  CLOUDY    77  72  84 CALM      30.08R
ST CHARLES     MOCLDY    77  72  84 CALM      30.08R

$$
MOZ072>076-082>087-097>100-106>115-121200-
...SOUTH CENTRAL AND SOUTHEAST MISSOURI...

CITY           SKY/WX    TMP DP  RH WIND       PRES   REMARKS
CAPE GIRARDEAU PTCLDY    72  69  90 CALM      30.13R
FARMINGTON     PTCLDY    73  72  94 CALM      30.16R
POPLAR BLUFF   FOG       71  68  90 CALM      30.13R VSB 3/4
WEST PLAINS    CLOUDY    75  72  90 SW5       30.18R

$$


USA.gov is the U.S. government's official web portal to all federal, state and local government web resources and services.